Location: Caltech
(34.1382°N, 118.1253°W)
Time: 08:42:21
(UTC-07:00)

Meteor 2-4 Rocket - Visible Passes

Search period start: 25 June 2017 00:00
Search period end: 05 July 2017 00:00
Orbit: 800 x 908 km, 81.2° (Epoch: 25 June)

Date Brightness Start Highest point End Pass type
(mag) Time Alt. Az. Time Alt. Az. Time Alt. Az.
25 Jun 4.3 04:11:16 10° N 04:16:46 57° E 04:22:07 10° SSE visible
26 Jun 4.4 04:00:17 10° N 04:05:45 53° E 04:11:02 10° SSE visible
27 Jun 4.5 03:49:18 10° N 03:54:42 49° ENE 03:59:56 10° SSE visible
28 Jun 4.6 03:38:21 10° N 03:43:40 45° ENE 03:48:50 10° SSE visible
29 Jun 4.7 03:27:23 10° N 03:32:38 42° ENE 03:37:43 10° SSE visible
29 Jun 5.1 05:11:26 10° NW 05:15:10 19° W 05:18:50 10° SW visible
30 Jun 4.8 03:16:25 10° N 03:21:35 39° ENE 03:26:36 10° SE visible
30 Jun 5.0 05:00:16 10° NW 05:04:11 20° W 05:08:01 10° SW visible
01 Jul 4.9 03:05:28 10° N 03:10:32 36° ENE 03:14:54 13° SE visible
01 Jul 4.9 04:49:07 10° NW 04:53:11 22° W 04:56:55 11° SW visible
02 Jul 5.0 02:54:31 10° NNE 02:59:29 34° ENE 03:03:10 16° SE visible
02 Jul 4.8 04:37:58 10° NW 04:42:11 23° W 04:45:11 15° SW visible
03 Jul 5.1 02:43:34 10° NNE 02:48:26 31° ENE 02:51:31 18° SE visible
03 Jul 4.7 04:26:50 10° NW 04:31:12 25° W 04:33:33 18° SW visible
04 Jul 5.2 02:32:39 10° NNE 02:37:23 29° ENE 02:39:56 20° ESE visible
04 Jul 4.6 04:15:42 10° NW 04:20:12 27° W 04:21:58 22° WSW visible
